Home   Weather   Jastrzębie Zdrój   Past weeks

Flag for Poland Past Weather in Jastrzębie Zdrój, Poland — Yesterday and Last 2 Weeks

Now
23 °F

Clear.


Feels Like: 14 °F
Forecast: 15 / 24 °F
Wind: 8 mph from Southwest

Location: Ostrava / Mosnov

Current Time: Jan 23, 2017 at 5:37:05 am

Latest Report: Jan 23, 2017 at 4:00 am


Visibility: 7 mi

Pressure: 30.40 "Hg

Humidity: 85%

Dew Point: 19 °F

Location of Jastrzębie ZdrójLocation

Past Weather in Jastrzębie Zdrój — Graph

°F

Jastrzębie Zdrój Temperature Yesterday

Maximum temperature yesterday: 34 °F (at 1:00 pm)
Minimum temperature yesterday: 15 °F (at 7:00 am)
Average temperature yesterday: 24 °F

High & Low Weather Summary for the Past Weeks

 TemperatureHumidityPressure
High40 °F (Jan 13, 2:00 pm)98% (Jan 14, 7:00 pm)30.75 "Hg (Jan 14, 7:00 pm)
Low-1 °F (Jan 9, 8:00 am)46% (Jan 11, 3:00 pm)29.38 "Hg (Jan 13, 2:00 pm)
Average23 °F80%30.26 "Hg
* Reported Jan 8 4:00 am — Jan 23 4:00 am, Jastrzębie Zdrój, Weather by CustomWeather, © 2017

Note: Actual official high and low records may vary slightly from our data, if they occured in-between our weather recording intervals... More about our weather records

Advertising

Jastrzębie Zdrój Weather History for the Previous 24 Hours

Scroll right to see more
 ConditionsComfort  
Time TempWeatherWind HumidityBarometerVisibility
4:00 am
Mon, Jan 23
23 °FClear.8 mph85%30.40 "Hg7 mi
3:00 am24 °FClear.8 mph82%30.42 "Hg7 mi
2:00 am24 °FClear.8 mph78%30.42 "Hg7 mi
1:00 am24 °FClear.9 mph74%30.43 "Hg7 mi
12:00 am25 °FClear.7 mph71%30.45 "Hg7 mi
11:00 pm
Sun, Jan 22
26 °FClear.6 mph67%30.45 "Hg7 mi
10:00 pm24 °FClear.N/A70%30.45 "Hg7 mi
9:00 pm27 °FClear.3 mph64%30.45 "Hg7 mi
8:00 pm26 °FClear.5 mph66%30.46 "Hg7 mi
7:00 pm26 °FClear.3 mph68%30.47 "Hg7 mi
6:00 pm26 °FClear.6 mph69%30.47 "Hg7 mi
5:00 pm28 °FClear.5 mph66%30.47 "Hg7 mi
4:00 pm30 °FSunny.5 mph64%30.47 "Hg9 mi
3:00 pm33 °FSunny.6 mph58%30.47 "Hg11 mi
2:00 pm34 °FSunny.6 mph54%30.47 "Hg9 mi
1:00 pm34 °FSunny.7 mph56%30.49 "Hg7 mi
12:00 pm32 °FFog.5 mph63%30.51 "Hg6 mi
11:00 am29 °FFog.5 mph73%30.54 "Hg6 mi
10:00 am26 °FFog.N/A77%30.54 "Hg4 mi
9:00 am20 °FFog.3 mph89%30.55 "Hg4 mi
8:00 am16 °FFog.2 mph91%30.56 "Hg2 mi
7:00 am15 °FFog.2 mph92%30.56 "Hg4 mi
6:00 am16 °FFog.1 mph93%30.56 "Hg4 mi
5:00 am17 °FFog.2 mph93%30.56 "Hg3 mi
Weather by CustomWeather, © 2017

See weather overviewHow to use our weather pages